Theta_e
303 302 305 306 307 306 302 303 302 301 300 301 302 302 305 304 306 307 309 310 311 309 302 306 308 310 313 318 319 319 317 314 319 320 321 321 321 320 319 322 332 330 331 329 334
300 300 300 302 301 301 301 302 301 300 302 303 303 303 303 306 304 307 308 309 307 304 303 307 309 310 313 315 318 320 315 320 317 318 320 321 322 322 323 330 326 329 329 330 334
300 299 299 299 300 301 301 301 301 302 304 304 303 304 304 306 307 306 306 307 306 304 303 306 308 310 313 312 312 319 319 317 317 313 311 319 322 321 322 325 323 329 327 333 334
300 299 299 299 300 300 301 302 302 305 305 304 304 304 305 304 307 306 306 307 306 304 303 307 309 310 310 311 310 316 310 308 310 307 309 316 318 320 312 312 322 328 327 328 332
301 299 299 298 300 299 301 303 304 305 305 304 304 304 304 307 307 306 306 306 307 305 306 306 308 308 309 308 309 310 307 307 307 306 309 312 320 317 309 307 325 327 327 329 330
301 299 299 299 299 298 301 303 304 305 305 305 305 305 307 308 305 306 306 306 306 307 306 307 307 307 307 307 307 307 307 307 308 307 310 313 315 316 309 306 309 318 316 310 309
299 300 299 299 299 298 301 303 305 306 306 305 304 304 307 306 306 306 306 306 306 306 308 306 306 309 307 309 307 306 307 307 309 308 309 310 315 309 306 306 307 308 309 308 307
297 300 299 299 299 299 304 304 305 305 303 304 303 304 307 305 305 306 306 306 306 306 306 306 306 307 308 307 308 308 309 310 309 308 308 310 315 307 306 308 308 307 307 306 305
298 300 299 299 299 299 303 303 303 305 305 303 303 305 307 305 306 306 306 306 306 306 305 305 306 308 308 310 311 311 312 311 310 307 308 310 310 306 305 306 307 306 305 304 304
299 299 300 299 300 298 301 302 302 304 304 302 303 305 305 306 305 306 306 305 306 306 309 309 309 311 310 312 315 312 311 310 310 308 308 308 307 306 305 305 305 305 305 304 303
300 298 300 299 300 299 298 300 303 306 305 305 305 304 305 305 304 306 305 306 307 308 311 308 311 312 310 309 308 309 310 310 309 307 308 308 307 306 305 305 304 304 304 303 302
300 298 300 300 300 300 300 304 302 303 302 301 304 304 303 304 306 307 306 308 308 310 308 311 311 308 307 308 308 309 310 311 308 307 308 308 308 306 305 304 303 303 303 302 301
301 298 300 299 299 300 303 303 303 302 304 298 301 304 304 304 306 307 306 306 308 309 310 311 309 307 308 309 310 310 310 310 310 309 306 307 308 307 306 305 303 302 301 301 300
302 298 300 299 299 299 301 303 304 301 314 301 301 302 303 304 306 305 304 306 307 309 307 309 307 308 309 310 309 311 308 308 309 310 312 306 312 308 308 307 305 303 302 301 300
303 298 300 299 298 300 301 302 303 301 330 298 300 300 302 305 303 306 302 306 308 305 306 310 309 310 309 309 308 310 307 307 309 310 309 308 311 309 307 308 306 303 301 300 299
304 299 299 299 299 300 302 303 300 320 319 300 299 303 303 303 304 305 304 302 301 304 304 304 302 307 308 307 306 306 305 304 304 307 313 308 309 309 308 306 305 303 301 300 299
305 300 299 299 299 300 302 300 319 325 298 302 302 302 303 303 304 306 305 304 306 312 307 304 305 304 305 308 307 308 307 315 315 313 313 304 308 309 306 304 302 301 301 300 299
305 300 299 299 299 301 297 309 322 300 300 297 301 301 304 302 304 305 306 307 304 302 305 308 312 304 304 307 307 308 307 312 316 314 311 304 310 309 304 302 301 300 300 299 299
304 300 300 299 299 300 303 318 319 304 298 301 297 301 301 302 303 304 306 307 304 302 309 308 307 301 304 305 307 308 309 307 308 303 306 307 306 306 304 303 302 301 299 299 299
304 300 300 299 300 297 308 313 301 295 299 299 305 298 302 301 303 304 305 306 306 303 299 303 308 300 302 303 304 308 307 309 308 312 313 310 306 308 306 305 303 302 300 299 299
303 302 300 299 298 303 313 307 296 296 300 300 299 300 301 302 303 303 304 305 304 303 301 307 303 306 302 307 306 307 307 306 307 307 311 311 310 303 305 304 303 302 300 299 298
300 306 300 298 304 292 306 295 297 300 300 299 298 300 301 301 303 303 305 303 300 303 303 303 303 307 305 301 299 304 306 307 308 308 306 306 309 304 303 303 301 301 300 299 297
299 301 299 296 310 305 296 298 299 301 302 301 300 300 300 301 301 302 303 300 300 302 303 303 303 308 306 305 304 306 306 307 306 305 306 310 311 301 302 302 301 301 300 298 297
301 304 300 300 297 301 301 301 301 299 301 301 300 301 301 301 300 300 302 301 300 303 302 300 298 302 304 306 304 304 303 306 307 308 306 306 308 305 302 302 302 300 298 296 294
299 302 300 305 304 299 299 300 301 302 300 301 302 301 301 300 299 301 301 301 302 304 301 301 301 295 297 298 298 300 302 303 307 307 306 304 301 304 303 302 301 299 298 298 296
300 300 298 299 298 299 301 302 302 301 301 302 302 301 300 300 301 301 302 301 302 303 301 299 300 295 296 294 298 300 301 301 301 304 306 306 306 305 302 301 297 299 299 299 298
299 298 304 300 299 301 301 301 301 301 300 300 301 301 301 300 298 297 298 298 299 302 300 299 298 298 301 291 291 302 299 301 304 304 305 306 308 304 303 301 301 301 299 299 298
Wind_Speed
11 12 12 13 13 13 14 13 13 12 12 12 10 8 5 7 20 26 27 20 19 23 17 10 6 4 4 4 5 3 3 3 2 3 2 7 6 4 3 4 3 5 4 2 18
11 12 13 13 14 14 14 13 12 12 12 11 10 9 4 4 7 29 20 23 21 21 11 11 7 6 4 3 4 2 2 2 4 6 6 10 7 7 2 4 6 4 8 7 20
11 12 13 13 14 14 14 13 12 12 12 10 8 12 8 2 4 10 26 23 20 21 4 6 3 3 6 4 6 3 2 2 2 6 9 9 7 12 1 6 10 13 4 7 16
11 11 13 13 13 14 13 13 11 12 13 14 11 7 12 3 4 12 25 19 17 18 5 11 5 3 4 5 4 2 6 5 5 7 6 6 10 7 14 9 12 11 4 3 5
10 11 12 13 14 13 11 11 10 10 13 17 19 10 5 8 7 17 21 15 13 14 15 4 12 4 6 4 4 6 5 3 8 4 5 8 5 3 14 21 11 10 9 8 7
11 11 12 13 14 13 9 8 7 5 8 13 15 18 6 9 12 18 15 14 14 11 12 12 5 5 7 4 4 1 1 7 8 5 6 5 5 2 17 19 14 14 17 15 20
10 11 12 12 15 13 8 6 6 6 7 8 7 7 23 8 13 17 13 12 11 9 5 8 3 2 1 3 2 1 2 2 17 12 4 7 4 13 18 10 14 16 14 16 20
10 10 11 12 15 11 8 7 5 6 9 7 8 8 6 8 17 18 16 9 9 11 5 6 5 5 4 1 1 1 1 2 12 17 4 6 5 15 16 10 14 14 13 13 16
9 10 11 12 13 8 9 12 12 3 5 8 7 4 4 9 15 20 14 8 5 6 9 5 4 5 3 1 3 5 4 7 2 17 5 5 3 14 13 10 13 13 13 12 13
9 9 11 12 12 9 3 5 7 8 4 4 11 3 6 8 12 17 10 10 6 3 1 7 5 7 13 6 3 5 3 3 6 9 10 11 10 10 12 13 13 13 13 13 14
8 9 11 11 12 11 2 1 1 2 16 7 1 4 3 14 5 19 12 6 4 7 4 7 11 11 10 6 2 2 1 4 2 5 5 9 9 9 11 14 15 14 14 14 14
7 9 10 9 8 12 7 5 3 4 9 7 3 3 2 6 5 22 16 5 8 8 2 4 11 8 2 5 3 4 2 5 1 6 2 5 7 6 11 12 13 13 13 14 14
7 8 9 7 5 13 17 7 4 2 4 4 3 3 4 7 5 13 12 4 6 8 13 9 4 5 2 8 2 4 7 6 3 5 1 4 4 3 2 6 11 12 12 13 14
6 8 9 3 2 4 5 3 2 2 3 8 5 4 3 2 4 4 7 2 5 5 3 5 4 4 4 4 7 3 6 5 4 4 2 1 0 6 1 1 11 13 13 13 14
5 6 7 8 3 3 2 1 1 2 3 3 3 5 4 5 4 10 7 4 5 4 2 2 5 6 5 4 5 4 8 3 1 2 2 4 4 5 0 1 11 13 13 13 13
3 4 4 2 6 4 2 2 1 3 0 1 3 5 2 6 2 4 5 7 0 2 4 3 1 3 5 3 2 10 3 1 1 1 3 1 3 5 2 2 8 11 11 12 13
1 3 4 4 2 3 2 1 4 4 1 1 2 3 3 6 5 7 4 9 5 2 6 4 2 2 3 3 0 11 3 1 2 1 1 1 4 4 4 3 6 9 10 10 11
2 2 6 6 3 3 2 2 3 2 3 0 1 2 3 5 3 4 2 3 7 4 3 4 0 6 6 4 4 6 5 3 4 3 3 1 3 3 4 2 4 4 6 8 11
5 3 3 3 2 3 1 3 4 5 3 6 2 2 1 0 2 1 4 2 2 2 2 3 2 3 2 2 4 4 4 2 1 2 3 1 2 4 5 3 4 5 7 10 11
6 3 1 1 1 1 4 3 2 1 3 1 2 1 1 1 1 0 1 1 2 1 0 3 4 1 3 1 1 3 1 1 1 4 3 1 4 3 2 3 4 5 8 10 11
6 2 1 0 2 2 3 3 2 2 1 1 3 3 1 1 0 1 2 2 2 2 1 2 1 1 2 4 4 2 1 1 1 2 2 4 1 2 3 5 6 5 7 9 11
6 1 1 2 3 1 3 5 3 4 2 1 2 2 3 5 2 2 2 1 3 5 2 2 0 3 2 1 3 3 4 3 2 1 1 2 4 3 6 6 6 6 7 8 9
4 2 3 1 3 2 1 2 2 4 3 4 3 1 1 3 1 2 2 2 4 3 3 4 2 3 3 1 1 4 4 3 1 1 6 2 2 3 7 7 7 7 7 8 7
3 3 2 2 1 5 5 3 3 1 3 3 3 3 3 1 1 3 3 3 3 3 5 5 1 3 3 1 2 4 5 7 6 4 3 8 7 7 7 7 4 5 4 5 5
2 3 2 4 3 3 3 6 5 5 2 4 2 7 5 4 1 4 3 4 2 8 3 2 2 3 6 9 6 9 10 8 12 11 6 1 5 10 9 8 4 4 3 4 5
5 4 0 2 3 6 5 6 8 4 7 4 5 6 8 5 5 7 8 6 4 6 4 2 1 1 4 1 2 7 12 12 13 16 16 15 20 10 6 3 5 7 5 5 5
5 4 3 4 4 4 5 6 7 7 3 1 6 4 7 7 2 3 3 3 5 6 7 4 3 1 4 2 6 6 7 14 8 8 13 8 9 2 2 5 7 8 7 7 5
Wind_Direction
46 43 38 31 32 30 31 24 25 27 26 21 24 30 33 95 48 44 37 354 344 340 347 337 23 26 53 70 30 306 248 266 8 317 36 2 355 28 337 273 34 20 337 328 153
40 38 36 30 30 24 27 24 25 29 29 31 39 29 36 112 41 39 1 357 355 351 355 7 30 34 72 40 30 1 277 57 27 8 339 331 355 339 307 106 24 16 5 161 158
35 32 30 31 27 24 29 29 26 35 37 39 41 43 45 103 88 356 356 1 359 2 354 348 7 41 74 51 18 29 43 26 39 340 331 322 358 19 355 51 2 318 287 182 165
31 27 27 28 22 21 30 31 37 45 47 50 33 30 46 77 53 339 352 359 4 14 47 24 31 68 66 64 12 106 35 1 340 326 321 341 328 61 31 3 327 326 193 318 150
32 20 21 23 19 16 25 33 48 62 63 45 34 33 51 56 32 344 350 359 13 23 32 38 48 53 72 58 70 52 8 20 353 305 305 308 30 52 20 353 5 47 63 45 63
27 17 16 20 16 13 19 28 52 54 27 37 68 56 65 65 341 352 355 16 24 24 29 39 56 48 82 62 59 128 200 29 15 15 24 313 41 310 354 342 38 55 54 53 51
25 12 8 16 13 11 19 20 47 53 28 31 58 84 58 52 10 7 14 27 27 28 42 43 48 48 122 112 24 318 191 31 21 359 32 325 93 15 347 350 46 61 63 54 44
19 10 7 13 12 16 36 55 49 76 51 43 55 74 76 10 12 8 16 29 40 47 49 35 44 71 42 55 109 16 276 330 26 6 20 321 120 7 5 32 45 42 50 50 49
15 5 6 11 12 24 85 79 40 284 19 43 49 74 63 347 1 2 12 359 1 38 43 53 54 47 28 89 124 44 40 17 51 20 337 355 49 11 17 40 49 43 36 34 31
13 4 4 6 7 7 232 267 48 57 46 50 44 97 39 331 325 351 358 17 25 338 60 33 48 60 32 30 48 6 28 37 37 17 43 66 72 41 34 47 44 38 36 30 25
9 3 2 3 5 7 41 166 153 31 36 53 67 99 324 326 12 4 355 332 26 53 51 29 62 40 19 14 46 8 19 23 49 15 57 69 68 52 45 46 37 32 28 25 20
0 3 2 2 20 18 62 60 25 127 92 34 35 60 334 342 356 11 9 48 32 55 334 86 51 360 274 11 65 43 1 27 226 13 126 125 99 81 51 49 39 26 23 17 10
360 2 0 347 20 40 74 84 76 104 81 38 15 17 346 355 33 1 13 21 29 44 46 77 14 329 125 39 20 44 14 337 303 334 71 201 182 199 122 46 40 35 26 20 11
7 2 6 14 65 50 53 66 81 352 90 356 4 31 346 346 66 346 12 20 53 44 31 66 349 11 39 52 353 294 4 302 283 228 199 269 191 200 268 67 32 23 18 13 6
10 4 19 47 101 65 53 92 122 300 65 13 349 321 343 70 306 22 22 29 59 36 293 56 5 359 20 0 334 328 327 305 297 191 205 182 260 126 140 215 8 11 10 9 4
9 10 23 29 59 75 72 114 76 35 125 9 315 356 16 16 57 318 27 52 104 72 43 41 359 329 332 316 308 326 248 191 131 234 231 110 281 144 161 6 349 0 9 5 3
312 33 68 73 77 17 13 137 27 110 17 11 45 19 60 7 15 18 39 40 27 34 16 346 28 337 336 339 330 4 322 245 207 228 2 43 270 23 132 60 358 347 359 2 0
193 92 80 87 63 23 18 35 77 26 238 14 63 100 84 346 22 22 67 52 48 47 77 6 170 4 355 56 326 2 0 29 309 325 330 317 260 86 137 98 3 345 346 348 352
179 126 112 55 34 26 85 54 203 192 154 158 130 88 79 3 304 95 52 84 39 14 54 351 272 333 349 9 331 358 36 353 277 135 263 308 232 164 182 248 325 336 335 347 346
169 133 78 24 42 61 78 223 166 189 116 141 152 242 164 111 223 32 86 87 139 61 171 133 300 66 327 287 87 343 352 288 30 337 319 319 283 339 193 292 328 333 340 342 342
156 121 288 60 39 57 147 187 168 185 110 134 170 143 147 154 131 128 125 167 188 112 174 104 206 90 259 37 349 340 335 3 342 314 325 316 81 172 245 304 314 324 329 334 340
144 137 343 135 69 8 143 166 157 156 155 147 136 141 160 167 155 181 151 164 164 154 111 120 235 289 92 259 322 289 293 295 287 196 250 293 282 172 242 283 294 289 309 327 333
117 102 22 358 146 157 132 128 179 144 184 174 175 58 94 170 189 198 165 123 155 164 167 165 168 303 158 166 104 266 230 251 80 214 223 238 249 236 263 277 271 274 293 314 322
119 119 357 33 13 143 153 166 153 216 143 166 127 119 127 131 353 185 183 193 177 153 122 126 146 246 264 268 97 233 233 229 219 245 197 241 297 275 257 246 262 251 255 287 304
92 193 200 182 227 175 121 140 144 179 228 205 163 211 174 157 157 222 171 188 153 149 123 213 219 198 267 267 256 254 249 222 229 234 229 70 239 268 264 259 244 228 231 288 303
138 145 155 110 114 126 165 206 167 152 160 216 228 183 192 183 200 194 179 206 188 175 181 192 173 162 275 286 213 268 247 235 242 246 257 265 280 274 297 202 215 212 203 252 271
146 128 129 151 138 139 204 177 190 152 180 74 202 128 208 227 178 56 87 79 156 168 177 179 157 48 268 329 306 275 232 200 217 220 215 206 229 257 281 240 229 218 226 243 255